THORAD AGENA D DEB, 4739

Orbit data source: Space-Track

THORAD AGENA D DEB, 4739 is space debris in SSO originally from a launch on Wed, 08 Apr 1970 UTC launched from the Air Force Western Test Range (AFWTR). Debris objects in space refer to the collection of defunct objects orbiting the Earth. Examples of debris include non-operational satellites, rocket bodies, and fragments generated from explosions, collisions, or faulty payload assembly.

Loading next visibility...
Identifier
4739, 1970-025CN
Orbit
SSO
Country
Flag of USUS
Related business
Manufacturer
Unknown
Mission
Spacecraft
Bus & Motor
Unknown
Mass
Unknown
Launch date (UTC)
1970-04-08 (56 years ago)
Launch vehicle
Unknown
Launch site
Air Force Western Test Range (AFWTR)
Object type
Payload
Rocket body
Debris
Shape & HBR
Unknown shape, 0.1 m
Radar Cross Section
Medium (>0.1 m² and <1 m²)

Expand to show TLE details & history
Last TLE update: 12 hours ago

TLE from 12 hours ago
0 THORAD AGENA D DEB
1 04739U 70025CN  26169.15431001  .00001285  00000-0  93396-3 0  9995
2 04739  99.9452  38.5780 0005136  54.5429  97.4541 13.98452766814305
Epoch: 2026-06-18T03:42Z
TLE epoch observation values (Epoch: 2026-06-18T03:42:12.384Z)
Latitude
27.53037°
Longitude
-98.15903°
Altitude
902.948 km
Speed
7.403 km/s
True Right ascension
14h 55m 10s
True Declination
27° 23' 33"
Sunlit
Object was in daylight at epoch
Visualization orbit readout
Latitude
Unknown
Longitude
Unknown
Altitude
Unknown
Speed
Unknown
Apparent Right ascension
Unknown
Apparent Declination
Unknown
Sunlit
N/A
Visualization observer readout
Local Sidereal Time
02:39:52
Azimuth
Unknown
Elevation
Unknown
Doppler factor
Unknown
Orbital elements
Apogee altitude
900.144 km
Perigee altitude
892.672 km
Semi-major axis
7,274.545 km
Eccentricity
0.00051
Inclination
99.9452°
RAAN
38.578°
Arg. of periapsis
54.5429°
True anomaly
97.51245°
Mean anomaly
97.4541°
Eccentric anomaly
97.48328°
Mean motion
3.49812 °/min
Orbital period
102.91 mins
BSTAR
0.00093396
Loading maneuver chart data...
Computing Atmospheric mass density...

Documentation

Showing up to 5 results
|